Tracking 19831 objects as of 23-Aug-2019
HD Live streaming from Space Station
objects crossing your sky now

IRS P6

Track IRS P6 now!
10-day predictions
IRS P6 is classified as:


NORAD ID: 28051
Int'l Code: 2003-046A
Perigee: 743.6 km
Apogee: 826.3 km
Inclination: 98.5 °
Period: 100.4 minutes
Semi major axis: 7155 km
RCS: 5.9386 m2 (large)
Launch date: October 17, 2003
Source: India (IND)
Launch site: SRIHARIKOTA (SRI)

Monitor agricultural, land, and water resources.
aabbcc
Your satellite tracking list
Your tracking list is empty




NASA's NSSDC Master Catalog

Two Line Element Set (TLE):
1 28051U 03046A   19235.40451099 -.00000016  00000-0  94894-5 0  9998
2 28051  98.5158 312.0810 0057782 192.9240 167.0468 14.34162991823527
Source of the keplerian elements: AFSPC